Time,TemperatureF,DewpointF,PressureIn,WindDirection,WindDirectionDegrees,WindSpeedMPH,WindSpeedGustMPH,Humidity,HourlyPrecipIn,Conditions,Clouds,dailyrainin,SoftwareType,DateUTC
2013-07-15 00:19:00,61.0,40.1,22.63,NNE,24,0.0,0.0,46,0.00,,---,0.00,VWS V14.01,2013-07-15 07:19:00,
2013-07-15 00:39:00,60.4,40.1,22.63,NNE,24,0.0,0.0,47,0.00,,---,0.00,VWS V14.01,2013-07-15 07:39:00,
2013-07-15 00:59:00,59.4,40.2,22.63,NNE,24,0.0,0.0,49,0.00,,---,0.00,VWS V14.01,2013-07-15 07:59:00,
2013-07-15 01:19:00,59.5,40.4,22.63,NNE,24,0.0,0.0,49,0.00,,---,0.00,VWS V14.01,2013-07-15 08:19:00,
2013-07-15 01:39:00,59.0,39.9,22.63,NNE,24,0.0,0.0,49,0.00,,---,0.00,VWS V14.01,2013-07-15 08:39:00,
2013-07-15 01:59:00,58.6,39.5,22.63,NNE,24,0.0,0.0,49,0.00,,---,0.00,VWS V14.01,2013-07-15 08:59:00,
2013-07-15 02:19:00,58.3,39.2,22.63,NNE,24,0.0,0.0,49,0.00,,---,0.00,VWS V14.01,2013-07-15 09:19:00,
2013-07-15 02:39:00,58.5,39.4,22.63,NNE,24,0.0,0.0,49,0.00,,---,0.00,VWS V14.01,2013-07-15 09:39:00,
2013-07-15 02:59:00,58.5,38.3,22.63,NNE,24,0.0,0.0,47,0.00,,---,0.00,VWS V14.01,2013-07-15 09:59:00,
2013-07-15 03:19:00,58.8,39.7,22.63,NNE,24,0.0,0.0,49,0.00,,---,0.00,VWS V14.01,2013-07-15 10:19:00,
2013-07-15 03:39:00,58.5,38.3,22.63,NNE,24,0.0,0.0,47,0.00,,---,0.00,VWS V14.01,2013-07-15 10:39:00,
2013-07-15 03:59:00,57.7,38.7,22.63,NNE,24,0.0,0.0,49,0.00,,---,0.00,VWS V14.01,2013-07-15 10:59:00,
2013-07-15 04:19:00,57.9,38.9,22.63,NNE,24,0.0,0.0,49,0.00,,---,0.00,VWS V14.01,2013-07-15 11:19:00,
2013-07-15 04:39:00,58.1,38.0,22.63,NNE,24,0.0,0.0,47,0.00,,---,0.00,VWS V14.01,2013-07-15 11:39:00,
2013-07-15 04:59:00,58.5,38.3,22.63,NNE,24,0.0,0.0,47,0.00,,---,0.00,VWS V14.01,2013-07-15 11:59:00,
2013-07-15 05:19:00,57.4,37.3,22.63,NNE,24,0.0,0.0,47,0.00,,---,0.00,VWS V14.01,2013-07-15 12:19:00,
2013-07-15 05:39:00,57.6,37.5,22.63,NNE,24,0.0,0.0,47,0.00,,---,0.00,VWS V14.01,2013-07-15 12:39:00,
2013-07-15 05:59:00,57.6,37.5,22.63,NNE,24,0.0,0.0,47,0.00,,---,0.00,VWS V14.01,2013-07-15 12:59:00,
2013-07-15 06:19:00,58.1,38.0,22.63,NNE,24,0.0,0.0,47,0.00,,---,0.00,VWS V14.01,2013-07-15 13:19:00,
2013-07-15 06:39:00,60.1,39.8,22.63,NNE,24,0.0,0.0,47,0.00,,---,0.00,VWS V14.01,2013-07-15 13:39:00,
2013-07-15 06:59:00,63.0,40.1,22.63,NNE,24,0.0,0.0,43,0.00,,---,0.00,VWS V14.01,2013-07-15 13:59:00,
2013-07-15 07:19:00,65.8,42.7,22.63,NNE,24,0.0,0.0,43,0.00,,---,0.00,VWS V14.01,2013-07-15 14:19:00,
2013-07-15 07:39:00,68.7,44.7,22.63,NNW,348,0.0,3.1,42,0.00,,---,0.00,VWS V14.01,2013-07-15 14:39:00,
2013-07-15 08:19:00,75.7,51.7,22.63,NW,317,2.7,4.9,43,0.00,,---,0.00,VWS V14.01,2013-07-15 15:19:00,
2013-07-15 08:39:00,78.3,54.0,22.63,West,278,0.0,4.0,43,0.00,,---,0.00,VWS V14.01,2013-07-15 15:39:00,
2013-07-15 08:59:00,80.6,55.4,22.63,SSW,198,3.1,7.2,42,0.00,,---,0.00,VWS V14.01,2013-07-15 15:59:00,
2013-07-15 09:19:00,82.6,56.5,22.63,SW,217,3.6,7.2,41,0.00,,---,0.00,VWS V14.01,2013-07-15 16:19:00,
2013-07-15 09:59:00,85.5,60.4,22.63,SSW,205,6.3,8.3,43,0.00,,---,0.00,VWS V14.01,2013-07-15 16:59:00,
2013-07-15 10:19:00,86.7,60.2,22.63,SSE,161,3.6,10.5,41,0.00,,---,0.00,VWS V14.01,2013-07-15 17:19:00,
2013-07-15 10:39:00,86.5,60.1,22.63,SW,231,4.9,10.1,41,0.00,,---,0.00,VWS V14.01,2013-07-15 17:39:00,
2013-07-15 10:59:00,87.3,60.7,22.63,SW,231,6.3,10.1,41,0.00,,---,0.00,VWS V14.01,2013-07-15 17:59:00,
2013-07-15 11:19:00,87.6,61.0,22.63,South,191,5.4,12.3,41,0.00,,---,0.00,VWS V14.01,2013-07-15 18:19:00,
2013-07-15 11:39:00,87.6,61.0,22.63,SSE,156,8.1,13.2,41,0.00,,---,0.00,VWS V14.01,2013-07-15 18:39:00,
2013-07-15 11:59:00,89.8,62.3,22.63,SSW,209,4.9,12.8,40,0.00,,---,0.00,VWS V14.01,2013-07-15 18:59:00,
2013-07-15 12:39:00,89.1,61.6,22.63,West,265,3.6,12.3,40,0.00,,---,0.00,VWS V14.01,2013-07-15 19:39:00,
2013-07-15 12:59:00,89.4,61.9,22.63,SW,218,5.4,8.7,40,0.00,,---,0.00,VWS V14.01,2013-07-15 19:59:00,
2013-07-15 13:19:00,93.0,64.4,22.63,South,184,4.0,11.0,39,0.00,,---,0.00,VWS V14.01,2013-07-15 20:19:00,
2013-07-15 13:39:00,93.4,64.7,22.63,SSW,192,5.8,11.9,39,0.00,,---,0.00,VWS V14.01,2013-07-15 20:39:00,
2013-07-15 13:59:00,92.1,65.8,22.63,NW,321,4.0,13.2,42,0.00,,---,0.00,VWS V14.01,2013-07-15 20:59:00,
2013-07-15 14:19:00,95.0,67.6,22.63,SE,145,3.6,10.1,41,0.00,,---,0.00,VWS V14.01,2013-07-15 21:19:00,
2013-07-15 14:39:00,92.8,66.4,22.63,SSW,210,6.3,8.3,42,0.00,,---,0.00,VWS V14.01,2013-07-15 21:39:00,
2013-07-15 14:59:00,95.7,68.3,22.63,SW,227,6.3,17.0,41,0.00,,---,0.00,VWS V14.01,2013-07-15 21:59:00,
2013-07-15 15:19:00,95.0,67.6,22.63,SSW,197,0.0,10.5,41,0.00,,---,0.00,VWS V14.01,2013-07-15 22:19:00,
2013-07-15 15:59:00,92.7,66.2,22.63,SSW,200,8.3,11.9,42,0.00,,---,0.00,VWS V14.01,2013-07-15 22:59:00,
2013-07-15 16:19:00,90.0,63.8,22.63,SSW,193,10.1,10.1,42,0.00,,---,0.00,VWS V14.01,2013-07-15 23:19:00,
2013-07-15 16:40:00,87.6,62.4,22.63,SSW,200,4.9,14.5,43,0.00,,---,0.00,VWS V14.01,2013-07-15 23:40:00,
2013-07-15 16:59:00,88.3,63.0,22.63,West,274,7.6,11.4,43,0.00,,---,0.00,VWS V14.01,2013-07-15 23:59:00,
2013-07-15 17:19:00,85.6,60.6,22.63,South,172,4.0,10.1,43,0.00,,---,0.00,VWS V14.01,2013-07-16 00:19:00,
2013-07-15 17:39:00,81.1,55.9,22.63,SW,232,8.7,10.1,42,0.00,,---,0.00,VWS V14.01,2013-07-16 00:39:00,
2013-07-15 18:00:00,78.8,53.8,22.63,WSW,242,2.7,8.7,42,0.00,,---,0.00,VWS V14.01,2013-07-16 01:00:00,
2013-07-15 18:19:00,77.5,53.3,22.63,South,187,4.0,8.7,43,0.00,,---,0.00,VWS V14.01,2013-07-16 01:19:00,
2013-07-15 18:59:00,75.4,51.3,22.63,North,5,3.1,7.2,43,0.00,,---,0.00,VWS V14.01,2013-07-16 01:59:00,
2013-07-15 19:19:00,73.6,49.7,22.63,SSE,164,2.2,5.8,43,0.00,,---,0.00,VWS V14.01,2013-07-16 02:19:00,
2013-07-15 19:39:00,71.6,48.6,22.63,SE,146,3.1,6.3,44,0.00,,---,0.00,VWS V14.01,2013-07-16 02:39:00,
2013-07-15 19:59:00,69.6,47.4,22.63,SW,219,4.0,6.3,45,0.00,,---,0.00,VWS V14.01,2013-07-16 02:59:00,
2013-07-15 20:19:00,69.1,46.9,22.63,ESE,109,2.2,8.7,45,0.00,,---,0.00,VWS V14.01,2013-07-16 03:19:00,
2013-07-15 20:39:00,67.8,45.7,22.63,NNE,33,4.5,5.4,45,0.00,,---,0.00,VWS V14.01,2013-07-16 03:39:00,
2013-07-15 20:59:00,67.3,45.2,22.63,North,357,2.7,9.2,45,0.00,,---,0.00,VWS V14.01,2013-07-16 03:59:00,
2013-07-15 21:19:00,67.3,45.2,22.63,NNE,19,4.5,8.1,45,0.00,,---,0.00,VWS V14.01,2013-07-16 04:19:00,
2013-07-15 21:40:00,66.0,44.1,22.63,SSE,159,0.0,5.8,45,0.00,,---,0.00,VWS V14.01,2013-07-16 04:40:00,
2013-07-15 21:59:00,65.3,43.4,22.63,North,357,3.1,5.8,45,0.00,,---,0.00,VWS V14.01,2013-07-16 04:59:00,
2013-07-15 22:19:00,63.7,42.5,22.63,NNW,342,2.2,5.8,46,0.00,,---,0.00,VWS V14.01,2013-07-16 05:19:00,
2013-07-15 22:40:00,62.6,41.5,22.63,East,79,3.6,4.0,46,0.00,,---,0.00,VWS V14.01,2013-07-16 05:40:00,
2013-07-15 22:59:00,62.6,41.5,22.63,NNW,330,3.6,5.4,46,0.00,,---,0.00,VWS V14.01,2013-07-16 05:59:00,
2013-07-15 23:20:00,61.2,40.2,22.63,North,0,0.0,4.5,46,0.00,,---,0.00,VWS V14.01,2013-07-16 06:20:00,
2013-07-15 23:40:00,60.6,40.3,22.63,NNE,27,0.0,3.6,47,0.00,,---,0.00,VWS V14.01,2013-07-16 06:40:00,
2013-07-15 23:59:00,61.0,38.9,22.63,NNW,335,0.0,3.6,44,0.00,,---,0.00,VWS V14.01,2013-07-16 06:59:00,